Location: Härggis
(46.9540°N, 8.4897°E)
Time: 22:53:04
(UTC+00:00)

Cosmos 2154 Rocket - Pass Details

Date: 27 May 2022
Orbit: 965 x 997 km, 82.9° (Epoch: 02 July)

Event Time Altitude Azimuth Distance (km) Brightness Sun altitude
Rises 01:22:44 0° 351° (N) 3,727 7.9 -16.6°
Reaches altitude 10° 01:25:17 10° 352° (N) 2,771 7.2 -16.4°
Maximum altitude 01:31:40 83° 82° (E) 1,004 4.1 -15.9°
Enters shadow 01:37:42 11° 170° (S) 2,639 5.8 -15.3°
